Location: ???????????
(55.5758°N, 38.4970°E)
Time: 18:06:06
(UTC+00:00)

USA 238 - Pass Details

Date: 15 November 2025
Orbit: 887 x 1324 km, 63.4° (Epoch: 24 November)

Event Time Altitude Azimuth Distance (km) Brightness Sun altitude
Exits shadow 02:03:34 35° 317° (NW) 1,670 4.4 -24.6°
Maximum altitude 02:05:47 45° 0° (N) 1,471 4.4 -24.3°
Drops below altitude 10° 02:12:54 10° 72° (ENE) 3,131 7.1 -23.3°
Sets 02:15:57 0° 79° (E) 4,156 8.2 -22.9°
